owner,sensor,date,latitude,longitude,vertical_datum,mass_concentration_of_oxygen_in_sea_water,qcFlag 
DISL,ioos:station:DISL:BSCA:1,2013-12-01T00:00:00Z,30.3288,-87.8293,2.039,10.98,1111122 
DISL,ioos:station:DISL:BSCA:1,2013-12-01T00:30:00Z,30.3288,-87.8293,2.061,10.81,1111122 
DISL,ioos:station:DISL:BSCA:1,2013-12-01T01:00:00Z,30.3288,-87.8293,2.07,10.95,1111122 
DISL,ioos:station:DISL:BSCA:1,2013-12-01T01:30:00Z,30.3288,-87.8293,2.081,11.0,1111122 
DISL,ioos:station:DISL:BSCA:1,2013-12-01T02:00:00Z,30.3288,-87.8293,2.078,10.73,1111122 
DISL,ioos:station:DISL:BSCA:1,2013-12-01T02:30:00Z,30.3288,-87.8293,2.082,10.76,1111122 
DISL,ioos:station:DISL:BSCA:1,2013-12-01T03:00:00Z,30.3288,-87.8293,2.072,10.71,1111122 
DISL,ioos:station:DISL:BSCA:1,2013-12-01T03:30:00Z,30.3288,-87.8293,2.056,10.61,1111122 
DISL,ioos:station:DISL:BSCA:1,2013-12-01T04:00:00Z,30.3288,-87.8293,2.036,10.49,1111122 
DISL,ioos:station:DISL:BSCA:1,2013-12-01T04:30:00Z,30.3288,-87.8293,2.009,10.69,1111122 
DISL,ioos:station:DISL:BSCA:1,2013-12-01T05:00:00Z,30.3288,-87.8293,1.988,10.45,1111122 
DISL,ioos:station:DISL:BSCA:1,2013-12-01T05:30:00Z,30.3288,-87.8293,1.946,10.61,1111122 
DISL,ioos:station:DISL:BSCA:1,2013-12-01T06:00:00Z,30.3288,-87.8293,1.91,10.38,1111122 
DISL,ioos:station:DISL:BSCA:1,2013-12-01T06:30:00Z,30.3288,-87.8293,1.873,10.3,1111122 
DISL,ioos:station:DISL:BSCA:1,2013-12-01T07:00:00Z,30.3288,-87.8293,1.833,10.34,1111122 
DISL,ioos:station:DISL:BSCA:1,2013-12-01T07:30:00Z,30.3288,-87.8293,1.79,10.42,1111122 
DISL,ioos:station:DISL:BSCA:1,2013-12-01T08:00:00Z,30.3288,-87.8293,1.746,10.4,1111122 
DISL,ioos:station:DISL:BSCA:1,2013-12-01T08:30:00Z,30.3288,-87.8293,1.714,10.32,1111122 
DISL,ioos:station:DISL:BSCA:1,2013-12-01T09:00:00Z,30.3288,-87.8293,1.684,10.77,1111122 
DISL,ioos:station:DISL:BSCA:1,2013-12-01T09:30:00Z,30.3288,-87.8293,1.653,10.62,1111122 
DISL,ioos:station:DISL:BSCA:1,2013-12-01T10:00:00Z,30.3288,-87.8293,1.623,10.82,1111122 
DISL,ioos:station:DISL:BSCA:1,2013-12-01T10:30:00Z,30.3288,-87.8293,1.593,10.86,1111122 
DISL,ioos:station:DISL:BSCA:1,2013-12-01T11:00:00Z,30.3288,-87.8293,1.57,10.79,1111122 
DISL,ioos:station:DISL:BSCA:1,2013-12-01T11:30:00Z,30.3288,-87.8293,1.548,10.75,1111122 
DISL,ioos:station:DISL:BSCA:1,2013-12-01T12:00:00Z,30.3288,-87.8293,1.531,10.79,1111122 
DISL,ioos:station:DISL:BSCA:1,2013-12-01T12:30:00Z,30.3288,-87.8293,1.529,10.74,1111122 
DISL,ioos:station:DISL:BSCA:1,2013-12-01T13:00:00Z,30.3288,-87.8293,1.521,10.52,1111122 
DISL,ioos:station:DISL:BSCA:1,2013-12-01T13:30:00Z,30.3288,-87.8293,1.52,10.65,1111122 
DISL,ioos:station:DISL:BSCA:1,2013-12-01T14:00:00Z,30.3288,-87.8293,1.521,10.79,1111122 
DISL,ioos:station:DISL:BSCA:1,2013-12-01T14:30:00Z,30.3288,-87.8293,1.561,10.65,1111122 
DISL,ioos:station:DISL:BSCA:1,2013-12-01T15:00:00Z,30.3288,-87.8293,1.59,10.78,1111122 
DISL,ioos:station:DISL:BSCA:1,2013-12-01T15:30:00Z,30.3288,-87.8293,1.627,10.86,1111122 
DISL,ioos:station:DISL:BSCA:1,2013-12-01T16:00:00Z,30.3288,-87.8293,1.656,10.74,1111122 
DISL,ioos:station:DISL:BSCA:1,2013-12-01T16:30:00Z,30.3288,-87.8293,1.677,10.83,1111122 
DISL,ioos:station:DISL:BSCA:1,2013-12-01T17:00:00Z,30.3288,-87.8293,1.705,11.13,1111122 
DISL,ioos:station:DISL:BSCA:1,2013-12-01T17:30:00Z,30.3288,-87.8293,1.728,11.15,1111122 
DISL,ioos:station:DISL:BSCA:1,2013-12-01T18:00:00Z,30.3288,-87.8293,1.75,11.23,1111122 
DISL,ioos:station:DISL:BSCA:1,2013-12-01T18:30:00Z,30.3288,-87.8293,1.797,11.33,1111122 
DISL,ioos:station:DISL:BSCA:1,2013-12-01T19:00:00Z,30.3288,-87.8293,1.819,11.25,1111122 
DISL,ioos:station:DISL:BSCA:1,2013-12-01T19:30:00Z,30.3288,-87.8293,1.86,11.51,1111122 
DISL,ioos:station:DISL:BSCA:1,2013-12-01T20:00:00Z,30.3288,-87.8293,1.899,11.27,1111122 
DISL,ioos:station:DISL:BSCA:1,2013-12-01T20:30:00Z,30.3288,-87.8293,1.933,11.8,1111122 
DISL,ioos:station:DISL:BSCA:1,2013-12-01T21:00:00Z,30.3288,-87.8293,1.97,11.89,1111122 
DISL,ioos:station:DISL:BSCA:1,2013-12-01T21:30:00Z,30.3288,-87.8293,2.002,11.32,1111122 
DISL,ioos:station:DISL:BSCA:1,2013-12-01T22:00:00Z,30.3288,-87.8293,2.04,11.08,1111122 
DISL,ioos:station:DISL:BSCA:1,2013-12-01T22:30:00Z,30.3288,-87.8293,2.066,11.75,1111122 
DISL,ioos:station:DISL:BSCA:1,2013-12-01T23:00:00Z,30.3288,-87.8293,2.103,11.42,1111122 
DISL,ioos:station:DISL:BSCA:1,2013-12-01T23:30:00Z,30.3288,-87.8293,2.135,11.67,1111122 
DISL,ioos:station:DISL:BSCA:1,2013-12-02T00:00:00Z,30.3288,-87.8293,2.165,11.61,1111122 
DISL,ioos:station:DISL:BSCA:1,2013-12-02T00:30:00Z,30.3288,-87.8293,2.192,11.77,1111122 
DISL,ioos:station:DISL:BSCA:1,2013-12-02T01:00:00Z,30.3288,-87.8293,2.223,11.71,1111122 
DISL,ioos:station:DISL:BSCA:1,2013-12-02T01:30:00Z,30.3288,-87.8293,2.245,11.58,1111122 
DISL,ioos:station:DISL:BSCA:1,2013-12-02T02:00:00Z,30.3288,-87.8293,2.27,11.55,1111122 
DISL,ioos:station:DISL:BSCA:1,2013-12-02T02:30:00Z,30.3288,-87.8293,2.276,11.52,1111122 
DISL,ioos:station:DISL:BSCA:1,2013-12-02T03:00:00Z,30.3288,-87.8293,2.282,11.45,1111122 
DISL,ioos:station:DISL:BSCA:1,2013-12-02T03:30:00Z,30.3288,-87.8293,2.265,11.3,1111122 
DISL,ioos:station:DISL:BSCA:1,2013-12-02T04:00:00Z,30.3288,-87.8293,2.252,11.28,1111122 
DISL,ioos:station:DISL:BSCA:1,2013-12-02T04:30:00Z,30.3288,-87.8293,2.233,11.07,1111122 
DISL,ioos:station:DISL:BSCA:1,2013-12-02T05:00:00Z,30.3288,-87.8293,2.205,11.16,1111122 
DISL,ioos:station:DISL:BSCA:1,2013-12-02T05:30:00Z,30.3288,-87.8293,2.161,11.25,1111122 
DISL,ioos:station:DISL:BSCA:1,2013-12-02T06:00:00Z,30.3288,-87.8293,2.122,11.26,1111122 
DISL,ioos:station:DISL:BSCA:1,2013-12-02T06:30:00Z,30.3288,-87.8293,2.079,10.94,1111122 
DISL,ioos:station:DISL:BSCA:1,2013-12-02T07:00:00Z,30.3288,-87.8293,2.038,10.55,1111122 
DISL,ioos:station:DISL:BSCA:1,2013-12-02T07:30:00Z,30.3288,-87.8293,1.983,11.01,1111122 
DISL,ioos:station:DISL:BSCA:1,2013-12-02T08:00:00Z,30.3288,-87.8293,1.943,10.64,1111122 
DISL,ioos:station:DISL:BSCA:1,2013-12-02T08:30:00Z,30.3288,-87.8293,1.901,10.41,1111122 
DISL,ioos:station:DISL:BSCA:1,2013-12-02T09:00:00Z,30.3288,-87.8293,1.855,10.19,1111122 
DISL,ioos:station:DISL:BSCA:1,2013-12-02T09:30:00Z,30.3288,-87.8293,1.818,10.33,1111122 
DISL,ioos:station:DISL:BSCA:1,2013-12-02T10:00:00Z,30.3288,-87.8293,1.798,10.87,1111122 
DISL,ioos:station:DISL:BSCA:1,2013-12-02T10:30:00Z,30.3288,-87.8293,1.758,11.02,1111122 
DISL,ioos:station:DISL:BSCA:1,2013-12-02T11:00:00Z,30.3288,-87.8293,1.714,10.82,1111122 
DISL,ioos:station:DISL:BSCA:1,2013-12-02T11:30:00Z,30.3288,-87.8293,1.681,11.28,1111122 
DISL,ioos:station:DISL:BSCA:1,2013-12-02T12:00:00Z,30.3288,-87.8293,1.649,10.75,1111122 
DISL,ioos:station:DISL:BSCA:1,2013-12-02T12:30:00Z,30.3288,-87.8293,1.631,10.78,1111122 
DISL,ioos:station:DISL:BSCA:1,2013-12-02T13:00:00Z,30.3288,-87.8293,1.589,11.01,1111122 
DISL,ioos:station:DISL:BSCA:1,2013-12-02T13:30:00Z,30.3288,-87.8293,1.574,10.8,1111122 
DISL,ioos:station:DISL:BSCA:1,2013-12-02T14:00:00Z,30.3288,-87.8293,1.559,10.82,1111122 
DISL,ioos:station:DISL:BSCA:1,2013-12-02T14:30:00Z,30.3288,-87.8293,1.566,10.4,1111122 
DISL,ioos:station:DISL:BSCA:1,2013-12-02T15:00:00Z,30.3288,-87.8293,1.561,10.68,1111122 
DISL,ioos:station:DISL:BSCA:1,2013-12-02T15:30:00Z,30.3288,-87.8293,1.578,11.04,1111122 
DISL,ioos:station:DISL:BSCA:1,2013-12-02T16:00:00Z,30.3288,-87.8293,1.589,10.85,1111122 
DISL,ioos:station:DISL:BSCA:1,2013-12-02T16:30:00Z,30.3288,-87.8293,1.627,11.01,1111122 
DISL,ioos:station:DISL:BSCA:1,2013-12-02T17:00:00Z,30.3288,-87.8293,1.651,11.34,1111122 
DISL,ioos:station:DISL:BSCA:1,2013-12-02T17:30:00Z,30.3288,-87.8293,1.693,11.38,1111122 
DISL,ioos:station:DISL:BSCA:1,2013-12-02T18:00:00Z,30.3288,-87.8293,1.733,10.67,1111122 
DISL,ioos:station:DISL:BSCA:1,2013-12-02T18:30:00Z,30.3288,-87.8293,1.778,10.97,1111122 
DISL,ioos:station:DISL:BSCA:1,2013-12-02T19:00:00Z,30.3288,-87.8293,1.803,11.89,1111122 
DISL,ioos:station:DISL:BSCA:1,2013-12-02T19:30:00Z,30.3288,-87.8293,1.83,12.11,1111122 
DISL,ioos:station:DISL:BSCA:1,2013-12-02T20:00:00Z,30.3288,-87.8293,1.866,12.04,1111122 
DISL,ioos:station:DISL:BSCA:1,2013-12-02T20:30:00Z,30.3288,-87.8293,1.887,11.34,1111122 
DISL,ioos:station:DISL:BSCA:1,2013-12-02T21:00:00Z,30.3288,-87.8293,1.918,11.92,1111122 
DISL,ioos:station:DISL:BSCA:1,2013-12-02T21:30:00Z,30.3288,-87.8293,1.967,12.32,1111122 
DISL,ioos:station:DISL:BSCA:1,2013-12-02T22:00:00Z,30.3288,-87.8293,2.008,11.75,1111122 
DISL,ioos:station:DISL:BSCA:1,2013-12-02T22:30:00Z,30.3288,-87.8293,2.055,11.66,1111122 
DISL,ioos:station:DISL:BSCA:1,2013-12-02T23:00:00Z,30.3288,-87.8293,2.099,11.62,1111122 
DISL,ioos:station:DISL:BSCA:1,2013-12-02T23:30:00Z,30.3288,-87.8293,2.131,12.37,1111122 
DISL,ioos:station:DISL:BSCA:1,2013-12-03T00:00:00Z,30.3288,-87.8293,2.174,12.24,1111122 
DISL,ioos:station:DISL:BSCA:1,2013-12-03T00:30:00Z,30.3288,-87.8293,2.221,12.09,1111122 
DISL,ioos:station:DISL:BSCA:1,2013-12-03T01:00:00Z,30.3288,-87.8293,2.264,12.03,1111122 
DISL,ioos:station:DISL:BSCA:1,2013-12-03T01:30:00Z,30.3288,-87.8293,2.304,12.04,1111122 
DISL,ioos:station:DISL:BSCA:1,2013-12-03T02:00:00Z,30.3288,-87.8293,2.337,12.1,1111122 
DISL,ioos:station:DISL:BSCA:1,2013-12-03T02:30:00Z,30.3288,-87.8293,2.37,12.07,1111122 
DISL,ioos:station:DISL:BSCA:1,2013-12-03T03:00:00Z,30.3288,-87.8293,2.385,12.29,1111122 
DISL,ioos:station:DISL:BSCA:1,2013-12-03T03:30:00Z,30.3288,-87.8293,2.403,12.12,1111122 
DISL,ioos:station:DISL:BSCA:1,2013-12-03T04:00:00Z,30.3288,-87.8293,2.394,12.26,1111122 
DISL,ioos:station:DISL:BSCA:1,2013-12-03T04:30:00Z,30.3288,-87.8293,2.429,11.94,1111122 
DISL,ioos:station:DISL:BSCA:1,2013-12-03T05:00:00Z,30.3288,-87.8293,2.41,11.88,1111122 
DISL,ioos:station:DISL:BSCA:1,2013-12-03T05:30:00Z,30.3288,-87.8293,2.41,11.91,1111122 
DISL,ioos:station:DISL:BSCA:1,2013-12-03T06:00:00Z,30.3288,-87.8293,2.364,11.65,1111122 
DISL,ioos:station:DISL:BSCA:1,2013-12-03T06:30:00Z,30.3288,-87.8293,2.316,11.51,1111122 
DISL,ioos:station:DISL:BSCA:1,2013-12-03T07:00:00Z,30.3288,-87.8293,2.262,11.68,1111122 
DISL,ioos:station:DISL:BSCA:1,2013-12-03T07:30:00Z,30.3288,-87.8293,2.219,11.95,1111122 
DISL,ioos:station:DISL:BSCA:1,2013-12-03T08:00:00Z,30.3288,-87.8293,2.181,12.0,1111122 
DISL,ioos:station:DISL:BSCA:1,2013-12-03T08:30:00Z,30.3288,-87.8293,2.142,11.97,1111122 
DISL,ioos:station:DISL:BSCA:1,2013-12-03T09:00:00Z,30.3288,-87.8293,2.106,11.94,1111122 
DISL,ioos:station:DISL:BSCA:1,2013-12-03T09:30:00Z,30.3288,-87.8293,2.067,11.88,1111122 
DISL,ioos:station:DISL:BSCA:1,2013-12-03T10:00:00Z,30.3288,-87.8293,2.03,11.73,1111122 
DISL,ioos:station:DISL:BSCA:1,2013-12-03T10:30:00Z,30.3288,-87.8293,1.986,11.71,1111122 
DISL,ioos:station:DISL:BSCA:1,2013-12-03T11:00:00Z,30.3288,-87.8293,1.939,11.83,1111122 
DISL,ioos:station:DISL:BSCA:1,2013-12-03T11:30:00Z,30.3288,-87.8293,1.905,12.09,1111122 
DISL,ioos:station:DISL:BSCA:1,2013-12-03T12:00:00Z,30.3288,-87.8293,1.872,12.56,1111122 
DISL,ioos:station:DISL:BSCA:1,2013-12-03T12:30:00Z,30.3288,-87.8293,1.839,12.66,1111122 
DISL,ioos:station:DISL:BSCA:1,2013-12-03T13:00:00Z,30.3288,-87.8293,1.811,12.57,1111122 
DISL,ioos:station:DISL:BSCA:1,2013-12-03T13:30:00Z,30.3288,-87.8293,1.783,12.65,1111122 
DISL,ioos:station:DISL:BSCA:1,2013-12-03T14:00:00Z,30.3288,-87.8293,1.772,11.77,1111122 
DISL,ioos:station:DISL:BSCA:1,2013-12-03T14:30:00Z,30.3288,-87.8293,1.74,11.87,1111122 
DISL,ioos:station:DISL:BSCA:1,2013-12-03T15:00:00Z,30.3288,-87.8293,1.736,11.73,1111122 
DISL,ioos:station:DISL:BSCA:1,2013-12-03T15:30:00Z,30.3288,-87.8293,1.727,12.1,1111122 
DISL,ioos:station:DISL:BSCA:1,2013-12-03T16:00:00Z,30.3288,-87.8293,1.726,12.0,1111122 
DISL,ioos:station:DISL:BSCA:1,2013-12-03T16:30:00Z,30.3288,-87.8293,1.731,11.63,1111122 
DISL,ioos:station:DISL:BSCA:1,2013-12-03T17:00:00Z,30.3288,-87.8293,1.75,12.37,1111122 
DISL,ioos:station:DISL:BSCA:1,2013-12-03T17:30:00Z,30.3288,-87.8293,1.775,12.66,1111122 
DISL,ioos:station:DISL:BSCA:1,2013-12-03T18:00:00Z,30.3288,-87.8293,1.801,12.23,1111122 
DISL,ioos:station:DISL:BSCA:1,2013-12-03T18:30:00Z,30.3288,-87.8293,1.834,12.66,1111122 
DISL,ioos:station:DISL:BSCA:1,2013-12-03T19:00:00Z,30.3288,-87.8293,1.868,13.02,1111122 
DISL,ioos:station:DISL:BSCA:1,2013-12-03T19:30:00Z,30.3288,-87.8293,1.9,12.56,1111122 
DISL,ioos:station:DISL:BSCA:1,2013-12-03T20:00:00Z,30.3288,-87.8293,1.927,13.22,1111122 
DISL,ioos:station:DISL:BSCA:1,2013-12-03T20:30:00Z,30.3288,-87.8293,1.955,13.34,1111122 
DISL,ioos:station:DISL:BSCA:1,2013-12-03T21:00:00Z,30.3288,-87.8293,1.983,13.36,1111122 
DISL,ioos:station:DISL:BSCA:1,2013-12-03T21:30:00Z,30.3288,-87.8293,2.014,13.39,1111122 
DISL,ioos:station:DISL:BSCA:1,2013-12-03T22:00:00Z,30.3288,-87.8293,2.039,13.23,1111122 
DISL,ioos:station:DISL:BSCA:1,2013-12-03T22:30:00Z,30.3288,-87.8293,2.071,13.0,1111122 
DISL,ioos:station:DISL:BSCA:1,2013-12-03T23:00:00Z,30.3288,-87.8293,2.107,12.92,1111122 
DISL,ioos:station:DISL:BSCA:1,2013-12-03T23:30:00Z,30.3288,-87.8293,2.14,12.85,1111122 
DISL,ioos:station:DISL:BSCA:1,2013-12-04T00:00:00Z,30.3288,-87.8293,2.179,12.8,1111122 
DISL,ioos:station:DISL:BSCA:1,2013-12-04T00:30:00Z,30.3288,-87.8293,2.215,12.87,1111122 
DISL,ioos:station:DISL:BSCA:1,2013-12-04T01:00:00Z,30.3288,-87.8293,2.253,12.7,1111122 
DISL,ioos:station:DISL:BSCA:1,2013-12-04T01:30:00Z,30.3288,-87.8293,2.288,12.81,1111122 
DISL,ioos:station:DISL:BSCA:1,2013-12-04T02:00:00Z,30.3288,-87.8293,2.331,12.92,1111122 
DISL,ioos:station:DISL:BSCA:1,2013-12-04T02:30:00Z,30.3288,-87.8293,2.358,13.0,1111122 
DISL,ioos:station:DISL:BSCA:1,2013-12-04T03:00:00Z,30.3288,-87.8293,2.389,13.34,1111122 
DISL,ioos:station:DISL:BSCA:1,2013-12-04T03:30:00Z,30.3288,-87.8293,2.403,13.07,1111122 
DISL,ioos:station:DISL:BSCA:1,2013-12-04T04:00:00Z,30.3288,-87.8293,2.413,12.42,1111122 
DISL,ioos:station:DISL:BSCA:1,2013-12-04T04:30:00Z,30.3288,-87.8293,2.413,12.71,1111122 
DISL,ioos:station:DISL:BSCA:1,2013-12-04T05:00:00Z,30.3288,-87.8293,2.419,12.29,1111122 
DISL,ioos:station:DISL:BSCA:1,2013-12-04T05:30:00Z,30.3288,-87.8293,2.406,12.91,1111122 
DISL,ioos:station:DISL:BSCA:1,2013-12-04T06:00:00Z,30.3288,-87.8293,2.391,12.81,1111122 
DISL,ioos:station:DISL:BSCA:1,2013-12-04T06:30:00Z,30.3288,-87.8293,2.371,12.89,1111122 
DISL,ioos:station:DISL:BSCA:1,2013-12-04T07:00:00Z,30.3288,-87.8293,2.335,12.64,1111122 
DISL,ioos:station:DISL:BSCA:1,2013-12-04T07:30:00Z,30.3288,-87.8293,2.298,11.43,1111122 
DISL,ioos:station:DISL:BSCA:1,2013-12-04T08:00:00Z,30.3288,-87.8293,2.255,11.85,1111122 
DISL,ioos:station:DISL:BSCA:1,2013-12-04T08:30:00Z,30.3288,-87.8293,2.213,12.83,1111122 
DISL,ioos:station:DISL:BSCA:1,2013-12-04T09:00:00Z,30.3288,-87.8293,2.169,12.73,1111122 
DISL,ioos:station:DISL:BSCA:1,2013-12-04T09:30:00Z,30.3288,-87.8293,2.124,12.24,1111122 
DISL,ioos:station:DISL:BSCA:1,2013-12-04T10:00:00Z,30.3288,-87.8293,2.082,11.86,1111122 
DISL,ioos:station:DISL:BSCA:1,2013-12-04T10:30:00Z,30.3288,-87.8293,2.039,11.67,1111122 
DISL,ioos:station:DISL:BSCA:1,2013-12-04T11:00:00Z,30.3288,-87.8293,1.998,11.48,1111122 
DISL,ioos:station:DISL:BSCA:1,2013-12-04T11:30:00Z,30.3288,-87.8293,1.954,11.45,1111122 
DISL,ioos:station:DISL:BSCA:1,2013-12-04T12:00:00Z,30.3288,-87.8293,1.919,11.21,1111122 
DISL,ioos:station:DISL:BSCA:1,2013-12-04T12:30:00Z,30.3288,-87.8293,1.883,11.25,1111122 
DISL,ioos:station:DISL:BSCA:1,2013-12-04T13:00:00Z,30.3288,-87.8293,1.853,11.31,1111122 
DISL,ioos:station:DISL:BSCA:1,2013-12-04T13:30:00Z,30.3288,-87.8293,1.824,11.51,1111122 
DISL,ioos:station:DISL:BSCA:1,2013-12-04T14:00:00Z,30.3288,-87.8293,1.799,11.53,1111122 
DISL,ioos:station:DISL:BSCA:1,2013-12-04T14:30:00Z,30.3288,-87.8293,1.774,11.68,1111122 
DISL,ioos:station:DISL:BSCA:1,2013-12-04T15:00:00Z,30.3288,-87.8293,1.755,11.26,1111122 
DISL,ioos:station:DISL:BSCA:1,2013-12-04T15:30:00Z,30.3288,-87.8293,1.739,11.33,1111122 
DISL,ioos:station:DISL:BSCA:1,2013-12-04T16:00:00Z,30.3288,-87.8293,1.749,12.09,1111122 
DISL,ioos:station:DISL:BSCA:1,2013-12-04T16:30:00Z,30.3288,-87.8293,1.719,12.26,1111122 
DISL,ioos:station:DISL:BSCA:1,2013-12-04T17:00:00Z,30.3288,-87.8293,1.737,12.29,1111122 
DISL,ioos:station:DISL:BSCA:1,2013-12-04T17:30:00Z,30.3288,-87.8293,1.74,12.24,1111122 
DISL,ioos:station:DISL:BSCA:1,2013-12-04T18:00:00Z,30.3288,-87.8293,1.753,12.07,1111122 
DISL,ioos:station:DISL:BSCA:1,2013-12-04T18:30:00Z,30.3288,-87.8293,1.782,11.81,1111122 
DISL,ioos:station:DISL:BSCA:1,2013-12-04T19:00:00Z,30.3288,-87.8293,1.81,11.87,1111122 
DISL,ioos:station:DISL:BSCA:1,2013-12-04T19:30:00Z,30.3288,-87.8293,1.851,11.85,1111122 
DISL,ioos:station:DISL:BSCA:1,2013-12-04T20:00:00Z,30.3288,-87.8293,1.89,11.85,1111122 
DISL,ioos:station:DISL:BSCA:1,2013-12-04T20:30:00Z,30.3288,-87.8293,1.918,11.91,1111122 
DISL,ioos:station:DISL:BSCA:1,2013-12-04T21:00:00Z,30.3288,-87.8293,1.947,11.65,1111122 
DISL,ioos:station:DISL:BSCA:1,2013-12-04T21:30:00Z,30.3288,-87.8293,1.978,11.65,1111122 
DISL,ioos:station:DISL:BSCA:1,2013-12-04T22:00:00Z,30.3288,-87.8293,2.0,12.08,1111122 
DISL,ioos:station:DISL:BSCA:1,2013-12-04T22:30:00Z,30.3288,-87.8293,2.033,12.14,1111122 
DISL,ioos:station:DISL:BSCA:1,2013-12-04T23:00:00Z,30.3288,-87.8293,2.058,12.18,1111122 
DISL,ioos:station:DISL:BSCA:1,2013-12-04T23:30:00Z,30.3288,-87.8293,2.096,12.31,1111122 
DISL,ioos:station:DISL:BSCA:1,2013-12-05T00:00:00Z,30.3288,-87.8293,2.129,12.22,1111122 
DISL,ioos:station:DISL:BSCA:1,2013-12-05T00:30:00Z,30.3288,-87.8293,2.174,12.13,1111122 
DISL,ioos:station:DISL:BSCA:1,2013-12-05T01:00:00Z,30.3288,-87.8293,2.205,12.13,1111122 
DISL,ioos:station:DISL:BSCA:1,2013-12-05T01:30:00Z,30.3288,-87.8293,2.242,12.02,1111122 
DISL,ioos:station:DISL:BSCA:1,2013-12-05T02:00:00Z,30.3288,-87.8293,2.29,12.0,1111122 
DISL,ioos:station:DISL:BSCA:1,2013-12-05T02:30:00Z,30.3288,-87.8293,2.322,11.93,1111122 
DISL,ioos:station:DISL:BSCA:1,2013-12-05T03:00:00Z,30.3288,-87.8293,2.36,12.06,1111122 
DISL,ioos:station:DISL:BSCA:1,2013-12-05T03:30:00Z,30.3288,-87.8293,2.386,12.03,1111122 
DISL,ioos:station:DISL:BSCA:1,2013-12-05T04:00:00Z,30.3288,-87.8293,2.414,12.2,1111122 
DISL,ioos:station:DISL:BSCA:1,2013-12-05T04:30:00Z,30.3288,-87.8293,2.44,11.84,1111122 
DISL,ioos:station:DISL:BSCA:1,2013-12-05T05:00:00Z,30.3288,-87.8293,2.444,11.84,1111122 
DISL,ioos:station:DISL:BSCA:1,2013-12-05T05:30:00Z,30.3288,-87.8293,2.446,11.51,1111122 
DISL,ioos:station:DISL:BSCA:1,2013-12-05T06:00:00Z,30.3288,-87.8293,2.436,10.79,1111122 
DISL,ioos:station:DISL:BSCA:1,2013-12-05T06:30:00Z,30.3288,-87.8293,2.416,11.8,1111122 
DISL,ioos:station:DISL:BSCA:1,2013-12-05T07:00:00Z,30.3288,-87.8293,2.383,11.72,1111122 
DISL,ioos:station:DISL:BSCA:1,2013-12-05T07:30:00Z,30.3288,-87.8293,2.349,11.91,1111122 
DISL,ioos:station:DISL:BSCA:1,2013-12-05T08:00:00Z,30.3288,-87.8293,2.312,12.56,1111122 
DISL,ioos:station:DISL:BSCA:1,2013-12-05T08:30:00Z,30.3288,-87.8293,2.28,12.33,1111122 
DISL,ioos:station:DISL:BSCA:1,2013-12-05T09:00:00Z,30.3288,-87.8293,2.236,12.21,1111122 
DISL,ioos:station:DISL:BSCA:1,2013-12-05T09:30:00Z,30.3288,-87.8293,2.187,12.12,1111122 
DISL,ioos:station:DISL:BSCA:1,2013-12-05T10:00:00Z,30.3288,-87.8293,2.145,12.09,1111122 
DISL,ioos:station:DISL:BSCA:1,2013-12-05T10:30:00Z,30.3288,-87.8293,2.097,12.5,1111122 
DISL,ioos:station:DISL:BSCA:1,2013-12-05T11:00:00Z,30.3288,-87.8293,2.059,12.52,1111122 
DISL,ioos:station:DISL:BSCA:1,2013-12-05T11:30:00Z,30.3288,-87.8293,2.02,12.21,1111122 
DISL,ioos:station:DISL:BSCA:1,2013-12-05T12:00:00Z,30.3288,-87.8293,1.986,11.72,1111122 
DISL,ioos:station:DISL:BSCA:1,2013-12-05T12:30:00Z,30.3288,-87.8293,1.95,11.54,1111122 
DISL,ioos:station:DISL:BSCA:1,2013-12-05T13:00:00Z,30.3288,-87.8293,1.914,11.27,1111122 
DISL,ioos:station:DISL:BSCA:1,2013-12-05T13:30:00Z,30.3288,-87.8293,1.881,11.27,1111122 
DISL,ioos:station:DISL:BSCA:1,2013-12-05T14:00:00Z,30.3288,-87.8293,1.852,10.99,1111122 
DISL,ioos:station:DISL:BSCA:1,2013-12-05T14:30:00Z,30.3288,-87.8293,1.822,10.95,1111122 
DISL,ioos:station:DISL:BSCA:1,2013-12-05T15:00:00Z,30.3288,-87.8293,1.796,11.12,1111122 
DISL,ioos:station:DISL:BSCA:1,2013-12-05T15:30:00Z,30.3288,-87.8293,1.777,11.14,1111122 
DISL,ioos:station:DISL:BSCA:1,2013-12-05T16:00:00Z,30.3288,-87.8293,1.76,11.18,1111122 
DISL,ioos:station:DISL:BSCA:1,2013-12-05T16:30:00Z,30.3288,-87.8293,1.757,11.23,1111122 
DISL,ioos:station:DISL:BSCA:1,2013-12-05T17:00:00Z,30.3288,-87.8293,1.744,11.25,1111122 
DISL,ioos:station:DISL:BSCA:1,2013-12-05T17:30:00Z,30.3288,-87.8293,1.731,11.18,1111122 
DISL,ioos:station:DISL:BSCA:1,2013-12-05T18:00:00Z,30.3288,-87.8293,1.733,11.21,1111122 
DISL,ioos:station:DISL:BSCA:1,2013-12-05T18:30:00Z,30.3288,-87.8293,1.738,11.3,1111122 
DISL,ioos:station:DISL:BSCA:1,2013-12-05T19:00:00Z,30.3288,-87.8293,1.751,11.26,1111122 
DISL,ioos:station:DISL:BSCA:1,2013-12-05T19:30:00Z,30.3288,-87.8293,1.781,11.31,1111122 
DISL,ioos:station:DISL:BSCA:1,2013-12-05T20:00:00Z,30.3288,-87.8293,1.813,11.27,1111122 
DISL,ioos:station:DISL:BSCA:1,2013-12-05T20:30:00Z,30.3288,-87.8293,1.851,10.94,1111122 
DISL,ioos:station:DISL:BSCA:1,2013-12-05T21:00:00Z,30.3288,-87.8293,1.888,11.07,1111122 
DISL,ioos:station:DISL:BSCA:1,2013-12-05T21:30:00Z,30.3288,-87.8293,1.922,11.19,1111122 
DISL,ioos:station:DISL:BSCA:1,2013-12-05T22:00:00Z,30.3288,-87.8293,1.947,11.26,1111122 
DISL,ioos:station:DISL:BSCA:1,2013-12-05T22:30:00Z,30.3288,-87.8293,1.966,11.29,1111122 
DISL,ioos:station:DISL:BSCA:1,2013-12-05T23:00:00Z,30.3288,-87.8293,1.989,11.27,1111122 
DISL,ioos:station:DISL:BSCA:1,2013-12-05T23:30:00Z,30.3288,-87.8293,2.016,11.17,1111122 
DISL,ioos:station:DISL:BSCA:1,2013-12-06T00:00:00Z,30.3288,-87.8293,2.045,11.05,1111122 
DISL,ioos:station:DISL:BSCA:1,2013-12-06T00:30:00Z,30.3288,-87.8293,2.079,11.0,1111122 
DISL,ioos:station:DISL:BSCA:1,2013-12-06T01:00:00Z,30.3288,-87.8293,2.113,10.88,1111122 
DISL,ioos:station:DISL:BSCA:1,2013-12-06T01:30:00Z,30.3288,-87.8293,2.155,10.71,1111122 
DISL,ioos:station:DISL:BSCA:1,2013-12-06T02:00:00Z,30.3288,-87.8293,2.199,10.55,1111122 
DISL,ioos:station:DISL:BSCA:1,2013-12-06T02:30:00Z,30.3288,-87.8293,2.241,10.48,1111122 
DISL,ioos:station:DISL:BSCA:1,2013-12-06T03:00:00Z,30.3288,-87.8293,2.281,10.46,1111122 
DISL,ioos:station:DISL:BSCA:1,2013-12-06T03:30:00Z,30.3288,-87.8293,2.312,10.4,1111122 
DISL,ioos:station:DISL:BSCA:1,2013-12-06T04:00:00Z,30.3288,-87.8293,2.342,10.37,1111122 
DISL,ioos:station:DISL:BSCA:1,2013-12-06T04:30:00Z,30.3288,-87.8293,2.372,10.31,1111122 
DISL,ioos:station:DISL:BSCA:1,2013-12-06T05:00:00Z,30.3288,-87.8293,2.397,10.25,1111122 
DISL,ioos:station:DISL:BSCA:1,2013-12-06T05:30:00Z,30.3288,-87.8293,2.407,10.21,1111122 
DISL,ioos:station:DISL:BSCA:1,2013-12-06T06:00:00Z,30.3288,-87.8293,2.411,10.22,1111122 
DISL,ioos:station:DISL:BSCA:1,2013-12-06T06:30:00Z,30.3288,-87.8293,2.408,10.24,1111122 
DISL,ioos:station:DISL:BSCA:1,2013-12-06T07:00:00Z,30.3288,-87.8293,2.392,10.23,1111122 
DISL,ioos:station:DISL:BSCA:1,2013-12-06T07:30:00Z,30.3288,-87.8293,2.367,10.34,1111122 
DISL,ioos:station:DISL:BSCA:1,2013-12-06T08:00:00Z,30.3288,-87.8293,2.343,10.48,1111122 
DISL,ioos:station:DISL:BSCA:1,2013-12-06T08:30:00Z,30.3288,-87.8293,2.322,10.38,1111122 
DISL,ioos:station:DISL:BSCA:1,2013-12-06T09:00:00Z,30.3288,-87.8293,2.299,10.33,1111122 
DISL,ioos:station:DISL:BSCA:1,2013-12-06T09:30:00Z,30.3288,-87.8293,2.267,10.34,1111122 
DISL,ioos:station:DISL:BSCA:1,2013-12-06T10:00:00Z,30.3288,-87.8293,2.241,10.26,1111122 
DISL,ioos:station:DISL:BSCA:1,2013-12-06T10:30:00Z,30.3288,-87.8293,2.207,10.07,1111122 
DISL,ioos:station:DISL:BSCA:1,2013-12-06T11:00:00Z,30.3288,-87.8293,2.169,10.05,1111122 
DISL,ioos:station:DISL:BSCA:1,2013-12-06T11:30:00Z,30.3288,-87.8293,2.125,9.94,1111122 
DISL,ioos:station:DISL:BSCA:1,2013-12-06T12:00:00Z,30.3288,-87.8293,2.093,10.01,1111122 
DISL,ioos:station:DISL:BSCA:1,2013-12-06T12:30:00Z,30.3288,-87.8293,2.055,9.9,1111122 
DISL,ioos:station:DISL:BSCA:1,2013-12-06T13:00:00Z,30.3288,-87.8293,2.019,9.97,1111122 
DISL,ioos:station:DISL:BSCA:1,2013-12-06T13:30:00Z,30.3288,-87.8293,1.983,9.97,1111122 
DISL,ioos:station:DISL:BSCA:1,2013-12-06T14:00:00Z,30.3288,-87.8293,1.958,9.87,1111122 